This demonstration page uses our WeatherBlox Daily Observations layout. Learn more.

Left ArrowRight Arrow

41.86663, -103.66717

Hourly Observations for March 17, 2018

Temp ( °F °C ) Dew Point ( °F °C ) Humidity (%) Winds ( mph kmh ) Pressure ( in mb ) Visibility ( mi km ) Precip ( " mm )
12:53 am 00:53 Clear with Mist and Fog 25 -3.9 25 -3.9 100 100 NW 6 9 30.01 1016 6 10 N/A
1:53 am 01:53 Clear with Mist and Fog 23 -5 22 -5.6 96 96 NW 3 6 30.01 1016 6 10 N/A
2:53 am 02:53 Clear 23 -5 22 -5.6 96 96 N 8 13 30.00 1016 7 11 N/A
3:20 am 03:20 Partly Cloudy 25 -4 25 -4 100 100 N 5 7 30.09 1019 7 11 N/A
3:29 am 03:29 Mostly Cloudy with Mist and Fog 22 -5.6 21 -6.1 96 96 N N/A 30.12 1020 6 10 N/A
3:34 am 03:34 Mostly Cloudy with Mist and Fog 21 -6 21 -6 100 100 WNW 3 6 30.15 1021 2 3 N/A
3:37 am 03:37 Mostly Cloudy with Mist and Fog 23 -5 21 -6.1 92 92 W 3 6 30.12 1020 1 1 N/A
3:49 am 03:49 Mostly Cloudy with Freezing Fog 25 -4 25 -4 100 100 WNW 3 6 30.09 1019 0 0 N/A
3:53 am 03:53 Mostly Cloudy with Freezing Fog 25 -3.9 24 -4.4 96 96 WNW 3 6 29.98 1015 0 0 N/A
4:04 am 04:04 Mostly Cloudy with Freezing Fog 25 -4 25 -4 100 100 WSW 3 6 30.09 1019 0 0 N/A
4:53 am 04:53 Mostly Cloudy with Freezing Fog 27 -2.8 27 -2.8 100 100 N N/A 29.97 1015 0 0 N/A
5:53 am 05:53 Mostly Cloudy with Freezing Fog 28 -2.2 28 -2.2 100 100 W 3 6 29.98 1015 0 0 N/A
6:53 am 06:53 Mostly Cloudy with Freezing Fog 27 -2.8 26 -3.3 96 96 NNW 3 6 29.99 1016 0 0 N/A
7:53 am 07:53 Mostly Cloudy with Freezing Fog 28 -2.2 26 -3.3 92 92 N 5 7 30.01 1016 5 8 N/A
8:08 am 08:08 Mostly Cloudy with Freezing Fog 28 -2 27 -3 93 93 N N/A 30.06 1018 5 8 N/A
8:53 am 08:53 Mostly Cloudy with Freezing Fog 28 -2.2 25 -3.9 88 88 NW 5 7 30.01 1016 0 0 N/A
9:53 am 09:53 Mostly Cloudy with Freezing Fog 30 -1.1 27 -2.8 88 88 NE 3 6 29.99 1016 0 0 N/A
10:40 am 10:40 Cloudy with Freezing Fog 30 -1 28 -2 93 93 E 3 6 30.06 1018 1 1 N/A
10:53 am 10:53 Cloudy with Freezing Fog 31 -0.6 29 -1.7 92 92 ESE 3 6 29.98 1015 1 1 N/A
11:05 am 11:05 Cloudy with Mist and Fog 31 -0.6 29 -1.7 92 92 N N/A 30.06 1018 2 3 N/A
11:13 am 11:13 Mostly Cloudy with Mist and Fog 31 -0.6 30 -1.1 96 96 N N/A 30.06 1018 6 10 N/A
11:26 am 11:26 Partly Cloudy 32 undefined 31 -0.6 96 96 SSE 3 6 30.03 1017 8 13 N/A
11:37 am 11:37 Mostly Cloudy with Mist and Fog 32 undefined 31 -0.6 96 96 VRB 3 6 30.03 1017 2 3 N/A
11:46 am 11:46 Mostly Cloudy with Mist and Fog 34 1 32 undefined 93 93 E 3 6 30.00 1016 2 3 N/A
11:53 am 11:53 Mostly Cloudy with Mist and Fog 33 0.6 32 undefined 96 96 ESE 5 7 29.97 1015 1 2 N/A
12:02 pm 12:02 Mostly Cloudy with Mist and Fog 34 1 34 1 100 100 ESE 6 9 30.00 1016 4 6 N/A
12:16 pm 12:16 Partly Cloudy 34 1 34 1 100 100 ESE 7 11 30.00 1016 9 14 N/A
12:53 pm 12:53 Sunny 38 3.3 33 0.6 83 83 E 7 11 29.93 1014 10 16 N/A
1:53 pm 13:53 Sunny 49 9.4 38 3.3 66 66 undefined N/A 29.87 1012 10 16 N/A
2:53 pm 14:53 Sunny 56 13.3 39 3.9 53 53 SE 10 17 29.82 1010 10 16 N/A
3:53 pm 15:53 Sunny 60 15.6 32 undefined 35 35 SE 14 22 29.77 1008 10 16 N/A
4:53 pm 16:53 Sunny 62 16.7 26 -3.3 25 25 SSE 17 28 29.74 1007 10 16 N/A
5:53 pm 17:53 Sunny 56 13.3 39 3.9 53 53 ESE 17 28 29.76 1008 10 16 N/A
6:53 pm 18:53 Sunny 50 10 37 2.8 61 61 ESE 21 33 29.79 1009 10 16 N/A
7:53 pm 19:53 Clear 46 7.8 37 2.8 71 71 ESE 17 28 29.81 1010 10 16 N/A
8:53 pm 20:53 Clear 43 6.1 35 1.7 74 74 ESE 16 26 29.84 1010 10 16 N/A
9:53 pm 21:53 Clear 42 5.6 34 1.1 73 73 ESE 20 31 29.85 1011 10 16 N/A
10:53 pm 22:53 Mostly Clear 40 4.4 34 1.1 79 79 ESE 20 31 29.85 1011 10 16 N/A
11:53 pm 23:53 Clear 39 3.9 33 0.6 79 79 ESE 14 22 29.85 1011 10 16 N/A

Powered by AerisWeather